Torna al catalogo

STARLINK-31558

AttivoComunicazioniVLEO
NORAD 59196·PAYLOAD·🇺🇸 United States

Lanciato Mar 10, 2024 da Cape Canaveral Space Force Station

Loading…

Prossimi Passaggi (prossime 24 ore)

TLE

AggiornatoSource: CelesTrak SupGP

Epoca: Sep 14, 2026, 20:42 UTC

1 59196C 24045U   26257.86298611 -.00022655  00000+0 -82070-3 0  2576
2 59196  43.0020 103.8563 0001755 271.4559 205.5491 15.27583019    16

Traccia STARLINK-31558 in tempo reale con AllMySat

Download on the App Store